Terminal Aerodrome Forecast
Issued by NWS Missoula, MT

Home | Current Version | Previous Version | Text Only | Print | Product List | Glossary On
Versions: 1 2 3 4 5 6 7 8 9 10 11 12 13 14 15 16
000
FTUS45 KMSO 200600 AAB
TAFMSO
TAF AMD
KMSO 200612Z 2006/2106 32020KT P6SM VCSH BKN120
     FM201200 30010KT P6SM BKN050
     FM210200 34004KT P6SM SCT080=

USA.gov is the U.S. government's official web portal to all federal, state and local government web resources and services.